Time,TemperatureF,DewpointF,PressureIn,WindDirection,WindDirectionDegrees,WindSpeedMPH,WindSpeedGustMPH,Humidity,HourlyPrecipIn,Conditions,Clouds,dailyrainin,SoftwareType,DateUTC
2013-04-19 00:01:00,59.1,58.0,29.54,SSW,192,0.0,0.0,96,0.00,,,0.00,Wunderground v.1.15,2013-04-19 04:01:00,
2013-04-19 00:02:00,59.1,58.0,29.54,SSW,192,0.0,0.0,96,0.00,,,0.00,Wunderground v.1.15,2013-04-19 04:02:00,
2013-04-19 00:04:00,59.0,57.9,29.54,SSW,192,0.0,0.0,96,0.00,,,0.00,Wunderground v.1.15,2013-04-19 04:04:00,
2013-04-19 00:10:00,59.0,57.9,29.54,SSW,192,0.0,0.0,96,0.00,,,0.00,Wunderground v.1.15,2013-04-19 04:10:00,
2013-04-19 00:15:00,59.0,57.9,29.54,SSW,192,0.0,0.0,96,0.00,,,0.00,Wunderground v.1.15,2013-04-19 04:15:00,
2013-04-19 00:17:00,58.9,57.8,29.54,SSW,192,0.0,1.0,96,0.00,,,0.00,Wunderground v.1.15,2013-04-19 04:17:00,
2013-04-19 00:22:00,58.9,57.8,29.53,SSW,192,1.0,3.0,96,0.00,,,0.00,Wunderground v.1.15,2013-04-19 04:22:00,
2013-04-19 00:27:00,58.9,57.8,29.52,South,189,2.0,3.0,96,0.00,,,0.00,Wunderground v.1.15,2013-04-19 04:27:00,
2013-04-19 00:32:00,58.9,57.8,29.52,South,185,3.0,3.0,96,0.00,,,0.00,Wunderground v.1.15,2013-04-19 04:32:00,
2013-04-19 00:37:00,58.9,57.8,29.51,South,185,3.0,5.0,96,0.00,,,0.00,Wunderground v.1.15,2013-04-19 04:37:00,
2013-04-19 00:43:00,58.9,57.8,29.51,South,180,3.0,4.0,96,0.00,,,0.00,Wunderground v.1.15,2013-04-19 04:43:00,
2013-04-19 00:48:00,58.8,57.7,29.51,South,180,2.0,4.0,96,0.00,,,0.00,Wunderground v.1.15,2013-04-19 04:48:00,
2013-04-19 00:53:00,58.7,57.6,29.52,South,180,3.0,5.0,96,0.00,,,0.00,Wunderground v.1.15,2013-04-19 04:53:00,
2013-04-19 00:59:00,58.7,57.6,29.51,South,184,3.0,8.0,96,0.00,,,0.00,Wunderground v.1.15,2013-04-19 04:59:00,
2013-04-19 01:04:00,58.7,57.9,29.53,South,190,4.0,7.0,97,0.00,,,0.00,Wunderground v.1.15,2013-04-19 05:04:00,
2013-04-19 01:10:00,58.7,57.6,29.53,SSW,193,4.0,6.0,96,0.00,,,0.00,Wunderground v.1.15,2013-04-19 05:10:00,
2013-04-19 01:15:00,58.6,57.5,29.52,SSW,211,3.0,6.0,96,0.00,,,0.00,Wunderground v.1.15,2013-04-19 05:15:00,
2013-04-19 01:20:00,58.7,57.9,29.51,SSW,208,3.0,3.0,97,0.00,,,0.00,Wunderground v.1.15,2013-04-19 05:20:00,
2013-04-19 01:25:00,58.6,57.8,29.51,SSW,208,2.0,3.0,97,0.00,,,0.00,Wunderground v.1.15,2013-04-19 05:25:00,
2013-04-19 01:31:00,58.6,57.8,29.51,SSW,208,3.0,3.0,97,0.00,,,0.00,Wunderground v.1.15,2013-04-19 05:31:00,
2013-04-19 01:37:00,58.6,57.8,29.50,SSW,209,4.0,9.0,97,0.00,,,0.00,Wunderground v.1.15,2013-04-19 05:37:00,
2013-04-19 01:42:00,58.5,57.7,29.50,SSW,209,2.0,2.0,97,0.00,,,0.00,Wunderground v.1.15,2013-04-19 05:42:00,
2013-04-19 01:47:00,58.5,57.7,29.49,SSW,209,1.0,2.0,97,0.00,,,0.00,Wunderground v.1.15,2013-04-19 05:47:00,
2013-04-19 01:52:00,58.5,57.7,29.48,SSW,209,0.0,1.0,97,0.00,,,0.00,Wunderground v.1.15,2013-04-19 05:52:00,
2013-04-19 01:57:00,58.4,57.6,29.48,SSW,209,0.0,1.0,97,0.00,,,0.00,Wunderground v.1.15,2013-04-19 05:57:00,
2013-04-19 02:03:00,58.4,57.6,29.47,SSW,209,0.0,1.0,97,0.00,,,0.00,Wunderground v.1.15,2013-04-19 06:03:00,
2013-04-19 02:08:00,58.4,57.6,29.47,SSW,209,1.0,2.0,97,0.00,,,0.00,Wunderground v.1.15,2013-04-19 06:08:00,
2013-04-19 02:13:00,58.3,57.5,29.46,SSW,209,1.0,2.0,97,0.00,,,0.00,Wunderground v.1.15,2013-04-19 06:13:00,
2013-04-19 02:18:00,58.3,57.5,29.46,SSW,209,2.0,4.0,97,0.00,,,0.00,Wunderground v.1.15,2013-04-19 06:18:00,
2013-04-19 02:23:00,58.2,57.4,29.46,SSW,209,2.0,3.0,97,0.00,,,0.00,Wunderground v.1.15,2013-04-19 06:23:00,
2013-04-19 02:29:00,58.3,57.5,29.45,SSW,209,3.0,4.0,97,0.00,,,0.00,Wunderground v.1.15,2013-04-19 06:29:00,
2013-04-19 02:34:00,58.2,57.4,29.45,SSW,194,4.0,7.0,97,0.00,,,0.00,Wunderground v.1.15,2013-04-19 06:34:00,
2013-04-19 02:39:00,58.2,57.4,29.45,South,190,4.0,7.0,97,0.00,,,0.00,Wunderground v.1.15,2013-04-19 06:39:00,
2013-04-19 02:45:00,58.2,57.4,29.46,South,190,3.0,4.0,97,0.00,,,0.00,Wunderground v.1.15,2013-04-19 06:45:00,
2013-04-19 02:50:00,58.2,57.4,29.45,South,190,3.0,3.0,97,0.00,,,0.01,Wunderground v.1.15,2013-04-19 06:50:00,
2013-04-19 02:55:00,58.2,57.4,29.44,South,190,3.0,4.0,97,0.09,,,0.02,Wunderground v.1.15,2013-04-19 06:55:00,
2013-04-19 03:00:00,58.1,57.3,29.44,South,190,3.0,3.0,97,0.07,,,0.02,Wunderground v.1.15,2013-04-19 07:00:00,
2013-04-19 03:06:00,58.1,57.3,29.43,South,190,3.0,4.0,97,0.04,,,0.02,Wunderground v.1.15,2013-04-19 07:06:00,
2013-04-19 03:11:00,58.1,57.3,29.43,SSE,148,3.0,4.0,97,0.04,,,0.03,Wunderground v.1.15,2013-04-19 07:11:00,
2013-04-19 03:16:00,58.1,57.3,29.43,SE,144,4.0,4.0,97,0.04,,,0.03,Wunderground v.1.15,2013-04-19 07:16:00,
2013-04-19 03:21:00,58.1,57.3,29.42,SE,142,4.0,4.0,97,0.06,,,0.04,Wunderground v.1.15,2013-04-19 07:21:00,
2013-04-19 03:27:00,58.0,57.2,29.42,SE,132,5.0,6.0,97,0.06,,,0.05,Wunderground v.1.15,2013-04-19 07:27:00,
2013-04-19 03:32:00,57.9,57.1,29.41,SE,134,5.0,5.0,97,0.12,,,0.06,Wunderground v.1.15,2013-04-19 07:32:00,
2013-04-19 03:37:00,57.9,57.1,29.41,SE,126,4.0,5.0,97,0.10,,,0.06,Wunderground v.1.15,2013-04-19 07:37:00,
2013-04-19 03:42:00,57.8,57.0,29.40,ESE,120,4.0,5.0,97,0.06,,,0.07,Wunderground v.1.15,2013-04-19 07:42:00,
2013-04-19 03:48:00,57.8,57.0,29.40,ESE,121,4.0,5.0,97,0.06,,,0.07,Wunderground v.1.15,2013-04-19 07:48:00,
2013-04-19 03:53:00,57.8,57.0,29.39,ESE,122,4.0,8.0,97,0.06,,,0.08,Wunderground v.1.15,2013-04-19 07:53:00,
2013-04-19 03:58:00,57.7,56.9,29.38,SE,124,4.0,8.0,97,0.06,,,0.08,Wunderground v.1.15,2013-04-19 07:58:00,
2013-04-19 04:04:00,57.7,56.9,29.37,ESE,119,4.0,9.0,97,0.05,,,0.08,Wunderground v.1.15,2013-04-19 08:04:00,
2013-04-19 04:09:00,57.6,56.8,29.37,ESE,115,5.0,9.0,97,0.05,,,0.09,Wunderground v.1.15,2013-04-19 08:09:00,
2013-04-19 04:14:00,57.6,56.8,29.38,ESE,121,5.0,8.0,97,0.05,,,0.09,Wunderground v.1.15,2013-04-19 08:14:00,
2013-04-19 04:19:00,57.5,56.7,29.36,SE,124,5.0,8.0,97,0.04,,,0.09,Wunderground v.1.15,2013-04-19 08:19:00,
2013-04-19 04:25:00,57.4,56.6,29.36,ESE,122,5.0,7.0,97,0.00,,,0.10,Wunderground v.1.15,2013-04-19 08:25:00,
2013-04-19 04:30:00,57.4,56.6,29.36,SSE,154,4.0,6.0,97,0.00,,,0.10,Wunderground v.1.15,2013-04-19 08:30:00,
2013-04-19 04:35:00,57.4,56.6,29.35,SE,128,5.0,10.0,97,0.00,,,0.10,Wunderground v.1.15,2013-04-19 08:35:00,
2013-04-19 04:41:00,57.4,56.6,29.34,SE,126,5.0,5.0,97,0.04,,,0.11,Wunderground v.1.15,2013-04-19 08:41:00,
2013-04-19 04:46:00,57.5,56.7,29.34,SE,142,4.0,10.0,97,0.04,,,0.11,Wunderground v.1.15,2013-04-19 08:46:00,
2013-04-19 04:52:00,57.5,56.7,29.34,SE,132,5.0,5.0,97,0.05,,,0.12,Wunderground v.1.15,2013-04-19 08:52:00,
2013-04-19 04:57:00,57.6,56.8,29.33,SE,131,6.0,7.0,97,0.05,,,0.12,Wunderground v.1.15,2013-04-19 08:57:00,
2013-04-19 05:02:00,57.6,56.8,29.33,SE,136,6.0,10.0,97,0.05,,,0.12,Wunderground v.1.15,2013-04-19 09:02:00,
2013-04-19 05:07:00,57.7,56.9,29.33,ESE,122,5.0,10.0,97,0.05,,,0.13,Wunderground v.1.15,2013-04-19 09:07:00,
2013-04-19 05:13:00,57.8,57.0,29.32,ESE,121,5.0,7.0,97,0.10,,,0.14,Wunderground v.1.15,2013-04-19 09:13:00,
2013-04-19 05:18:00,57.8,57.0,29.32,ESE,115,5.0,7.0,97,0.07,,,0.14,Wunderground v.1.15,2013-04-19 09:18:00,
2013-04-19 05:23:00,57.8,57.0,29.31,SE,141,5.0,5.0,97,0.06,,,0.15,Wunderground v.1.15,2013-04-19 09:23:00,
2013-04-19 05:28:00,57.8,57.0,29.32,ESE,123,4.0,5.0,97,0.07,,,0.16,Wunderground v.1.15,2013-04-19 09:28:00,
2013-04-19 05:33:00,57.8,56.7,29.31,SE,129,4.0,7.0,96,0.07,,,0.16,Wunderground v.1.15,2013-04-19 09:33:00,
2013-04-19 05:39:00,57.8,56.7,29.31,SE,125,4.0,8.0,96,0.05,,,0.16,Wunderground v.1.15,2013-04-19 09:39:00,
2013-04-19 05:44:00,57.8,56.7,29.31,SE,140,4.0,6.0,96,0.04,,,0.16,Wunderground v.1.15,2013-04-19 09:44:00,
2013-04-19 05:49:00,57.9,56.8,29.30,SE,136,4.0,6.0,96,0.00,,,0.16,Wunderground v.1.15,2013-04-19 09:49:00,
2013-04-19 05:54:00,57.9,56.8,29.29,SE,140,4.0,5.0,96,0.00,,,0.17,Wunderground v.1.15,2013-04-19 09:54:00,
2013-04-19 06:00:00,58.1,57.3,29.29,SSE,152,4.0,4.0,97,0.11,,,0.18,Wunderground v.1.15,2013-04-19 10:00:00,
2013-04-19 06:06:00,58.4,57.3,29.29,South,185,4.0,9.0,96,0.14,,,0.20,Wunderground v.1.15,2013-04-19 10:06:00,
2013-04-19 06:12:00,58.5,57.4,29.29,SSW,213,6.0,6.0,96,0.13,,,0.21,Wunderground v.1.15,2013-04-19 10:12:00,
2013-04-19 06:18:00,58.6,57.5,29.29,South,180,7.0,7.0,96,0.18,,,0.23,Wunderground v.1.15,2013-04-19 10:18:00,
2013-04-19 06:23:00,58.7,57.9,29.29,SSW,206,8.0,11.0,97,0.13,,,0.24,Wunderground v.1.15,2013-04-19 10:23:00,
2013-04-19 06:28:00,58.7,57.9,29.29,South,187,9.0,11.0,97,0.10,,,0.24,Wunderground v.1.15,2013-04-19 10:28:00,
2013-04-19 06:34:00,58.8,58.0,29.29,SSW,201,9.0,10.0,97,0.05,,,0.25,Wunderground v.1.15,2013-04-19 10:34:00,
2013-04-19 06:40:00,54.8,52.5,29.31,WNW,287,11.0,11.0,92,0.05,,,0.25,Wunderground v.1.15,2013-04-19 10:40:00,
2013-04-19 06:45:00,51.4,49.2,29.32,West,271,14.0,21.0,92,0.05,,,0.26,Wunderground v.1.15,2013-04-19 10:45:00,
2013-04-19 06:51:00,50.0,48.1,29.32,WNW,294,15.0,16.0,93,0.05,,,0.26,Wunderground v.1.15,2013-04-19 10:51:00,
2013-04-19 06:56:00,49.6,47.9,29.33,WNW,287,13.0,18.0,94,0.05,,,0.26,Wunderground v.1.15,2013-04-19 10:56:00,
2013-04-19 07:02:00,49.2,47.5,29.33,WNW,298,12.0,12.0,94,0.00,,,0.26,Wunderground v.1.15,2013-04-19 11:02:00,
2013-04-19 07:07:00,48.9,47.2,29.33,NW,317,11.0,12.0,94,0.00,,,0.26,Wunderground v.1.15,2013-04-19 11:07:00,
2013-04-19 07:13:00,48.6,47.0,29.34,West,277,9.0,11.0,94,0.00,,,0.27,Wunderground v.1.15,2013-04-19 11:13:00,
2013-04-19 07:18:00,48.3,46.7,29.35,SW,232,8.0,15.0,94,0.00,,,0.27,Wunderground v.1.15,2013-04-19 11:18:00,
2013-04-19 07:23:00,48.0,46.4,29.34,SSW,212,9.0,9.0,94,0.00,,,0.27,Wunderground v.1.15,2013-04-19 11:23:00,
2013-04-19 07:28:00,47.8,46.2,29.33,WNW,302,9.0,16.0,94,0.04,,,0.28,Wunderground v.1.15,2013-04-19 11:28:00,
2013-04-19 07:34:00,47.6,46.0,29.33,NW,305,9.0,15.0,94,0.04,,,0.28,Wunderground v.1.15,2013-04-19 11:34:00,
2013-04-19 07:39:00,47.4,45.8,29.35,WSW,257,9.0,17.0,94,0.04,,,0.28,Wunderground v.1.15,2013-04-19 11:39:00,
2013-04-19 07:44:00,47.0,45.4,29.35,West,277,9.0,14.0,94,0.00,,,0.28,Wunderground v.1.15,2013-04-19 11:44:00,
2013-04-19 07:49:00,46.7,45.1,29.36,SW,234,9.0,15.0,94,0.00,,,0.28,Wunderground v.1.15,2013-04-19 11:49:00,
2013-04-19 07:54:00,46.4,44.5,29.36,WNW,296,10.0,15.0,93,0.00,,,0.28,Wunderground v.1.15,2013-04-19 11:54:00,
2013-04-19 08:00:00,46.1,44.2,29.35,West,281,10.0,10.0,93,0.00,,,0.28,Wunderground v.1.15,2013-04-19 12:00:00,
2013-04-19 08:06:00,46.0,44.1,29.36,West,273,9.0,13.0,93,0.00,,,0.28,Wunderground v.1.15,2013-04-19 12:06:00,
2013-04-19 08:11:00,46.0,44.4,29.37,SSW,194,7.0,7.0,94,0.00,,,0.28,Wunderground v.1.15,2013-04-19 12:11:00,
2013-04-19 08:16:00,46.0,44.4,29.37,West,260,7.0,12.0,94,0.00,,,0.28,Wunderground v.1.15,2013-04-19 12:16:00,
2013-04-19 08:21:00,45.7,44.1,29.38,WNW,286,9.0,9.0,94,0.00,,,0.29,Wunderground v.1.15,2013-04-19 12:21:00,
2013-04-19 08:27:00,45.0,43.1,29.38,West,275,10.0,15.0,93,0.00,,,0.29,Wunderground v.1.15,2013-04-19 12:27:00,
2013-04-19 08:32:00,44.7,43.1,29.37,West,267,11.0,11.0,94,0.00,,,0.29,Wunderground v.1.15,2013-04-19 12:32:00,
2013-04-19 08:37:00,44.5,42.9,29.38,WNW,284,10.0,14.0,94,0.00,,,0.29,Wunderground v.1.15,2013-04-19 12:37:00,
2013-04-19 08:42:00,44.1,42.2,29.38,NNW,329,10.0,11.0,93,0.00,,,0.29,Wunderground v.1.15,2013-04-19 12:42:00,
2013-04-19 08:48:00,43.7,41.8,29.38,WNW,286,10.0,17.0,93,0.00,,,0.30,Wunderground v.1.15,2013-04-19 12:48:00,
2013-04-19 08:53:00,43.4,41.5,29.38,West,267,9.0,15.0,93,0.00,,,0.30,Wunderground v.1.15,2013-04-19 12:53:00,
2013-04-19 08:59:00,43.3,41.4,29.39,WNW,288,10.0,15.0,93,0.00,,,0.30,Wunderground v.1.15,2013-04-19 12:59:00,
2013-04-19 09:04:00,43.1,40.9,29.39,WNW,290,10.0,14.0,92,0.00,,,0.30,Wunderground v.1.15,2013-04-19 13:04:00,
2013-04-19 09:09:00,42.8,40.4,29.40,NNW,328,11.0,14.0,91,0.00,,,0.30,Wunderground v.1.15,2013-04-19 13:09:00,
2013-04-19 09:14:00,42.4,40.0,29.40,WNW,297,11.0,18.0,91,0.00,,,0.30,Wunderground v.1.15,2013-04-19 13:14:00,
2013-04-19 09:20:00,42.0,39.6,29.40,West,270,10.0,18.0,91,0.00,,,0.30,Wunderground v.1.15,2013-04-19 13:20:00,
2013-04-19 09:25:00,41.8,39.4,29.40,WSW,244,11.0,14.0,91,0.00,,,0.30,Wunderground v.1.15,2013-04-19 13:25:00,
2013-04-19 09:30:00,41.7,39.0,29.40,SW,216,10.0,14.0,90,0.00,,,0.30,Wunderground v.1.15,2013-04-19 13:30:00,
2013-04-19 09:36:00,41.5,38.8,29.40,SSW,209,9.0,21.0,90,0.00,,,0.30,Wunderground v.1.15,2013-04-19 13:36:00,
2013-04-19 09:41:00,41.2,38.5,29.41,WNW,298,11.0,14.0,90,0.00,,,0.30,Wunderground v.1.15,2013-04-19 13:41:00,
2013-04-19 09:46:00,41.1,38.1,29.41,SW,222,12.0,17.0,89,0.00,,,0.30,Wunderground v.1.15,2013-04-19 13:46:00,
2013-04-19 09:52:00,41.1,38.1,29.41,SW,232,10.0,11.0,89,0.00,,,0.30,Wunderground v.1.15,2013-04-19 13:52:00,
2013-04-19 09:57:00,40.9,37.9,29.41,WSW,243,10.0,24.0,89,0.00,,,0.30,Wunderground v.1.15,2013-04-19 13:57:00,
2013-04-19 10:02:00,40.6,37.3,29.40,West,263,13.0,16.0,88,0.00,,,0.30,Wunderground v.1.15,2013-04-19 14:02:00,
2013-04-19 10:07:00,40.4,37.4,29.41,NNW,347,14.0,18.0,89,0.00,,,0.30,Wunderground v.1.15,2013-04-19 14:07:00,
2013-04-19 10:13:00,40.4,37.4,29.41,WSW,246,12.0,17.0,89,0.00,,,0.30,Wunderground v.1.15,2013-04-19 14:13:00,
2013-04-19 10:18:00,40.3,37.3,29.41,WSW,246,11.0,17.0,89,0.00,,,0.30,Wunderground v.1.15,2013-04-19 14:18:00,
2013-04-19 10:23:00,40.4,37.4,29.41,WSW,238,10.0,15.0,89,0.00,,,0.30,Wunderground v.1.15,2013-04-19 14:23:00,
2013-04-19 10:29:00,40.4,37.7,29.41,North,9,10.0,15.0,90,0.00,,,0.30,Wunderground v.1.15,2013-04-19 14:29:00,
2013-04-19 10:34:00,40.4,37.7,29.42,WSW,238,9.0,12.0,90,0.00,,,0.30,Wunderground v.1.15,2013-04-19 14:34:00,
2013-04-19 10:39:00,40.4,37.7,29.42,SW,234,9.0,12.0,90,0.00,,,0.30,Wunderground v.1.15,2013-04-19 14:39:00,
2013-04-19 10:44:00,40.5,37.8,29.42,SSW,209,8.0,12.0,90,0.00,,,0.30,Wunderground v.1.15,2013-04-19 14:44:00,
2013-04-19 10:50:00,40.5,37.5,29.42,SW,223,9.0,21.0,89,0.00,,,0.30,Wunderground v.1.15,2013-04-19 14:50:00,
2013-04-19 10:55:00,40.4,37.1,29.42,NW,315,14.0,21.0,88,0.00,,,0.30,Wunderground v.1.15,2013-04-19 14:55:00,
2013-04-19 11:00:00,40.4,36.5,29.43,WSW,252,14.0,14.0,86,0.00,,,0.30,Wunderground v.1.15,2013-04-19 15:00:00,
2013-04-19 11:06:00,40.4,35.6,29.43,SSW,195,14.0,25.0,83,0.00,,,0.30,Wunderground v.1.15,2013-04-19 15:06:00,
2013-04-19 11:11:00,40.5,35.4,29.44,WSW,242,16.0,22.0,82,0.00,,,0.30,Wunderground v.1.15,2013-04-19 15:11:00,
2013-04-19 11:16:00,40.4,33.8,29.43,SW,232,17.0,22.0,77,0.00,,,0.30,Wunderground v.1.15,2013-04-19 15:16:00,
2013-04-19 11:22:00,40.6,33.6,29.45,WNW,296,17.0,18.0,76,0.00,,,0.30,Wunderground v.1.15,2013-04-19 15:22:00,
2013-04-19 11:27:00,40.7,33.7,29.46,WSW,249,13.0,18.0,76,0.00,,,0.30,Wunderground v.1.15,2013-04-19 15:27:00,
2013-04-19 11:32:00,40.8,34.1,29.46,SW,224,11.0,22.0,77,0.00,,,0.30,Wunderground v.1.15,2013-04-19 15:32:00,
2013-04-19 11:38:00,40.7,33.7,29.46,SSW,205,11.0,22.0,76,0.00,,,0.30,Wunderground v.1.15,2013-04-19 15:38:00,
2013-04-19 11:43:00,40.8,33.8,29.47,WSW,241,11.0,24.0,76,0.00,,,0.30,Wunderground v.1.15,2013-04-19 15:43:00,
2013-04-19 11:49:00,40.7,33.4,29.47,SW,229,12.0,24.0,75,0.00,,,0.30,Wunderground v.1.15,2013-04-19 15:49:00,
2013-04-19 11:54:00,40.7,33.1,29.47,NE,40,13.0,27.0,74,0.00,,,0.30,Wunderground v.1.15,2013-04-19 15:54:00,
2013-04-19 11:59:00,40.7,33.1,29.48,WSW,242,13.0,27.0,74,0.00,,,0.30,Wunderground v.1.15,2013-04-19 15:59:00,
2013-04-19 12:04:00,40.8,32.8,29.48,SW,223,12.0,23.0,73,0.00,,,0.30,Wunderground v.1.15,2013-04-19 16:04:00,
2013-04-19 12:10:00,40.9,32.9,29.47,WSW,240,15.0,15.0,73,0.00,,,0.30,Wunderground v.1.15,2013-04-19 16:10:00,
2013-04-19 12:15:00,40.7,32.7,29.47,SW,236,17.0,21.0,73,0.00,,,0.30,Wunderground v.1.15,2013-04-19 16:15:00,
2013-04-19 12:20:00,40.5,32.5,29.47,SSW,213,17.0,17.0,73,0.00,,,0.30,Wunderground v.1.15,2013-04-19 16:20:00,
2013-04-19 12:25:00,40.5,32.9,29.47,SSW,210,16.0,21.0,74,0.00,,,0.30,Wunderground v.1.15,2013-04-19 16:25:00,
2013-04-19 12:31:00,40.5,33.2,29.48,SSE,158,15.0,15.0,75,0.00,,,0.30,Wunderground v.1.15,2013-04-19 16:31:00,
2013-04-19 12:37:00,40.4,33.1,29.47,SW,223,15.0,25.0,75,0.00,,,0.30,Wunderground v.1.15,2013-04-19 16:37:00,
2013-04-19 12:42:00,40.7,33.1,29.48,SW,223,16.0,20.0,74,0.00,,,0.30,Wunderground v.1.15,2013-04-19 16:42:00,
2013-04-19 12:48:00,41.1,32.4,29.48,SW,236,18.0,25.0,71,0.00,,,0.30,Wunderground v.1.15,2013-04-19 16:48:00,
2013-04-19 12:53:00,40.8,32.1,29.48,SSW,207,19.0,21.0,71,0.00,,,0.30,Wunderground v.1.15,2013-04-19 16:53:00,
2013-04-19 12:58:00,40.6,31.9,29.48,SW,234,16.0,21.0,71,0.00,,,0.30,Wunderground v.1.15,2013-04-19 16:58:00,
2013-04-19 13:04:00,40.6,32.3,29.48,NE,47,15.0,26.0,72,0.00,,,0.30,Wunderground v.1.15,2013-04-19 17:04:00,
2013-04-19 13:09:00,40.5,31.8,29.48,SSW,201,16.0,26.0,71,0.00,,,0.30,Wunderground v.1.15,2013-04-19 17:09:00,
2013-04-19 13:14:00,40.6,32.3,29.49,SW,226,15.0,22.0,72,0.00,,,0.30,Wunderground v.1.15,2013-04-19 17:14:00,
2013-04-19 13:19:00,40.6,32.3,29.49,SW,220,17.0,24.0,72,0.00,,,0.30,Wunderground v.1.15,2013-04-19 17:19:00,
2013-04-19 13:25:00,40.7,32.4,29.48,SW,222,19.0,22.0,72,0.00,,,0.30,Wunderground v.1.15,2013-04-19 17:25:00,
2013-04-19 13:30:00,40.9,32.2,29.49,SW,232,18.0,24.0,71,0.00,,,0.30,Wunderground v.1.15,2013-04-19 17:30:00,
2013-04-19 13:36:00,41.2,32.5,29.49,SW,223,17.0,28.0,71,0.00,,,0.30,Wunderground v.1.15,2013-04-19 17:36:00,
2013-04-19 13:41:00,41.3,33.0,29.49,SSW,213,15.0,15.0,72,0.00,,,0.30,Wunderground v.1.15,2013-04-19 17:41:00,
2013-04-19 13:47:00,41.0,32.3,29.48,SSW,193,15.0,35.0,71,0.00,,,0.30,Wunderground v.1.15,2013-04-19 17:47:00,
2013-04-19 13:52:00,41.0,32.3,29.49,South,174,17.0,19.0,71,0.00,,,0.30,Wunderground v.1.15,2013-04-19 17:52:00,
2013-04-19 13:57:00,41.0,32.3,29.50,SW,216,15.0,19.0,71,0.00,,,0.30,Wunderground v.1.15,2013-04-19 17:57:00,
2013-04-19 14:03:00,41.0,32.0,29.49,WSW,237,17.0,29.0,70,0.00,,,0.30,Wunderground v.1.15,2013-04-19 18:03:00,
2013-04-19 14:08:00,41.3,32.2,29.50,WNW,283,16.0,29.0,70,0.00,,,0.30,Wunderground v.1.15,2013-04-19 18:08:00,
2013-04-19 14:14:00,41.7,31.9,29.50,SW,229,13.0,15.0,68,0.00,,,0.30,Wunderground v.1.15,2013-04-19 18:14:00,
2013-04-19 14:19:00,41.6,31.4,29.49,WSW,238,15.0,25.0,67,0.00,,,0.30,Wunderground v.1.15,2013-04-19 18:19:00,
2013-04-19 14:24:00,41.8,31.3,29.49,WSW,245,19.0,26.0,66,0.00,,,0.30,Wunderground v.1.15,2013-04-19 18:24:00,
2013-04-19 14:30:00,42.2,31.6,29.50,South,173,17.0,26.0,66,0.00,,,0.30,Wunderground v.1.15,2013-04-19 18:30:00,
2013-04-19 14:35:00,42.2,30.9,29.50,SSW,204,16.0,20.0,64,0.00,,,0.30,Wunderground v.1.15,2013-04-19 18:35:00,
2013-04-19 14:40:00,41.9,30.6,29.50,WSW,240,17.0,24.0,64,0.00,,,0.30,Wunderground v.1.15,2013-04-19 18:40:00,
2013-04-19 14:46:00,41.8,31.3,29.51,West,279,15.0,27.0,66,0.00,,,0.30,Wunderground v.1.15,2013-04-19 18:46:00,
2013-04-19 14:51:00,41.8,31.3,29.51,SW,232,12.0,14.0,66,0.00,,,0.30,Wunderground v.1.15,2013-04-19 18:51:00,
2013-04-19 14:56:00,41.8,31.6,29.52,WSW,257,12.0,15.0,67,0.00,,,0.30,Wunderground v.1.15,2013-04-19 18:56:00,
2013-04-19 15:02:00,41.8,31.6,29.52,WSW,242,11.0,12.0,67,0.00,,,0.30,Wunderground v.1.15,2013-04-19 19:02:00,
2013-04-19 15:07:00,41.7,31.5,29.52,West,259,11.0,14.0,67,0.00,,,0.30,Wunderground v.1.15,2013-04-19 19:07:00,
2013-04-19 15:12:00,41.9,31.7,29.52,WSW,248,12.0,25.0,67,0.00,,,0.30,Wunderground v.1.15,2013-04-19 19:12:00,
2013-04-19 15:18:00,41.7,31.2,29.53,WNW,290,13.0,26.0,66,0.00,,,0.30,Wunderground v.1.15,2013-04-19 19:18:00,
2013-04-19 15:23:00,42.0,31.8,29.54,SSW,211,14.0,18.0,67,0.00,,,0.30,Wunderground v.1.15,2013-04-19 19:23:00,
2013-04-19 15:28:00,42.2,31.6,29.53,West,272,13.0,20.0,66,0.00,,,0.30,Wunderground v.1.15,2013-04-19 19:28:00,
2013-04-19 15:33:00,42.0,31.1,29.54,SW,236,16.0,22.0,65,0.00,,,0.30,Wunderground v.1.15,2013-04-19 19:33:00,
2013-04-19 15:39:00,41.9,31.4,29.54,WSW,238,18.0,29.0,66,0.00,,,0.30,Wunderground v.1.15,2013-04-19 19:39:00,
2013-04-19 15:44:00,41.7,31.2,29.53,WSW,243,19.0,30.0,66,0.00,,,0.30,Wunderground v.1.15,2013-04-19 19:44:00,
2013-04-19 15:49:00,41.6,31.4,29.54,SSW,207,19.0,30.0,67,0.00,,,0.30,Wunderground v.1.15,2013-04-19 19:49:00,
2013-04-19 15:55:00,41.6,31.1,29.54,SSW,196,15.0,24.0,66,0.00,,,0.30,Wunderground v.1.15,2013-04-19 19:55:00,
2013-04-19 16:00:00,41.5,31.4,29.54,WSW,240,14.0,14.0,67,0.00,,,0.30,Wunderground v.1.15,2013-04-19 20:00:00,
2013-04-19 16:06:00,41.4,31.6,29.55,SW,225,16.0,22.0,68,0.00,,,0.30,Wunderground v.1.15,2013-04-19 20:06:00,
2013-04-19 16:11:00,41.4,31.6,29.54,SW,227,17.0,29.0,68,0.00,,,0.30,Wunderground v.1.15,2013-04-19 20:11:00,
2013-04-19 16:16:00,41.6,31.8,29.55,WSW,238,16.0,29.0,68,0.00,,,0.30,Wunderground v.1.15,2013-04-19 20:16:00,
2013-04-19 16:22:00,41.7,31.9,29.55,SSW,207,13.0,18.0,68,0.00,,,0.30,Wunderground v.1.15,2013-04-19 20:22:00,
2013-04-19 16:27:00,41.4,31.3,29.55,SW,223,14.0,28.0,67,0.00,,,0.30,Wunderground v.1.15,2013-04-19 20:27:00,
2013-04-19 16:32:00,41.4,31.6,29.56,WSW,254,15.0,27.0,68,0.00,,,0.30,Wunderground v.1.15,2013-04-19 20:32:00,
2013-04-19 16:38:00,41.6,31.1,29.56,SW,234,14.0,27.0,66,0.00,,,0.30,Wunderground v.1.15,2013-04-19 20:38:00,
2013-04-19 16:44:00,41.8,30.9,29.55,WSW,242,13.0,21.0,65,0.00,,,0.30,Wunderground v.1.15,2013-04-19 20:44:00,
2013-04-19 16:49:00,41.9,30.6,29.56,SW,229,13.0,21.0,64,0.00,,,0.30,Wunderground v.1.15,2013-04-19 20:49:00,
2013-04-19 16:54:00,41.8,30.1,29.56,WSW,240,15.0,24.0,63,0.00,,,0.30,Wunderground v.1.15,2013-04-19 20:54:00,
2013-04-19 16:59:00,41.7,30.0,29.57,SW,229,17.0,24.0,63,0.00,,,0.30,Wunderground v.1.15,2013-04-19 20:59:00,
2013-04-19 17:05:00,41.6,30.3,29.57,SW,221,17.0,22.0,64,0.00,,,0.30,Wunderground v.1.15,2013-04-19 21:05:00,
2013-04-19 17:10:00,41.5,29.8,29.57,SW,214,19.0,22.0,63,0.00,,,0.30,Wunderground v.1.15,2013-04-19 21:10:00,
2013-04-19 17:15:00,41.5,30.2,29.59,WSW,238,18.0,22.0,64,0.00,,,0.30,Wunderground v.1.15,2013-04-19 21:15:00,
2013-04-19 17:21:00,41.5,30.2,29.59,WSW,242,16.0,18.0,64,0.00,,,0.30,Wunderground v.1.15,2013-04-19 21:21:00,
2013-04-19 17:26:00,41.5,30.6,29.59,SW,222,14.0,22.0,65,0.00,,,0.30,Wunderground v.1.15,2013-04-19 21:26:00,
2013-04-19 17:32:00,41.6,30.3,29.59,SW,234,15.0,21.0,64,0.00,,,0.30,Wunderground v.1.15,2013-04-19 21:32:00,
2013-04-19 17:37:00,41.5,30.2,29.60,SW,217,17.0,21.0,64,0.00,,,0.30,Wunderground v.1.15,2013-04-19 21:37:00,
2013-04-19 17:43:00,41.5,30.6,29.60,SW,214,17.0,18.0,65,0.00,,,0.30,Wunderground v.1.15,2013-04-19 21:43:00,
2013-04-19 17:48:00,41.3,30.8,29.60,SW,233,16.0,24.0,66,0.00,,,0.30,Wunderground v.1.15,2013-04-19 21:48:00,
2013-04-19 17:53:00,41.1,31.0,29.61,SW,221,15.0,15.0,67,0.00,,,0.30,Wunderground v.1.15,2013-04-19 21:53:00,
2013-04-19 17:59:00,41.0,30.9,29.61,SW,227,14.0,23.0,67,0.00,,,0.30,Wunderground v.1.15,2013-04-19 21:59:00,
2013-04-19 18:04:00,41.0,30.9,29.61,SW,228,15.0,22.0,67,0.00,,,0.30,Wunderground v.1.15,2013-04-19 22:04:00,
2013-04-19 18:09:00,41.0,30.9,29.61,SSW,199,13.0,22.0,67,0.00,,,0.30,Wunderground v.1.15,2013-04-19 22:09:00,
2013-04-19 18:15:00,41.2,30.7,29.61,SW,215,13.0,24.0,66,0.00,,,0.30,Wunderground v.1.15,2013-04-19 22:15:00,
2013-04-19 18:20:00,41.2,30.7,29.61,SSW,203,16.0,16.0,66,0.00,,,0.30,Wunderground v.1.15,2013-04-19 22:20:00,
2013-04-19 18:25:00,41.3,30.8,29.62,SW,224,13.0,19.0,66,0.00,,,0.30,Wunderground v.1.15,2013-04-19 22:25:00,
2013-04-19 18:30:00,41.1,31.0,29.62,West,270,13.0,15.0,67,0.00,,,0.30,Wunderground v.1.15,2013-04-19 22:30:00,
2013-04-19 18:36:00,41.1,30.2,29.62,WSW,237,16.0,21.0,65,0.00,,,0.30,Wunderground v.1.15,2013-04-19 22:36:00,
2013-04-19 18:42:00,41.1,30.2,29.63,SW,235,14.0,18.0,65,0.00,,,0.30,Wunderground v.1.15,2013-04-19 22:42:00,
2013-04-19 18:47:00,41.2,30.3,29.63,SSW,213,13.0,20.0,65,0.00,,,0.30,Wunderground v.1.15,2013-04-19 22:47:00,
2013-04-19 18:53:00,40.9,30.4,29.63,WSW,257,15.0,22.0,66,0.00,,,0.30,Wunderground v.1.15,2013-04-19 22:53:00,
2013-04-19 18:58:00,40.8,30.7,29.64,West,265,15.0,22.0,67,0.00,,,0.30,Wunderground v.1.15,2013-04-19 22:58:00,
2013-04-19 19:03:00,40.7,30.6,29.64,SW,228,13.0,18.0,67,0.00,,,0.30,Wunderground v.1.15,2013-04-19 23:03:00,
2013-04-19 19:08:00,40.7,30.6,29.64,SSW,213,13.0,20.0,67,0.00,,,0.30,Wunderground v.1.15,2013-04-19 23:08:00,
2013-04-19 19:14:00,40.7,29.8,29.65,SSW,202,13.0,26.0,65,0.00,,,0.30,Wunderground v.1.15,2013-04-19 23:14:00,
2013-04-19 19:19:00,40.8,30.3,29.65,WNW,299,12.0,26.0,66,0.00,,,0.30,Wunderground v.1.15,2013-04-19 23:19:00,
2013-04-19 19:24:00,40.8,30.3,29.65,SW,234,9.0,11.0,66,0.00,,,0.30,Wunderground v.1.15,2013-04-19 23:24:00,
2013-04-19 19:30:00,40.6,30.5,29.65,WSW,255,13.0,14.0,67,0.00,,,0.30,Wunderground v.1.15,2013-04-19 23:30:00,
2013-04-19 19:35:00,40.4,30.7,29.65,SW,229,15.0,20.0,68,0.00,,,0.30,Wunderground v.1.15,2013-04-19 23:35:00,
2013-04-19 19:41:00,40.2,31.2,29.66,SW,224,13.0,13.0,70,0.00,,,0.30,Wunderground v.1.15,2013-04-19 23:41:00,
2013-04-19 19:46:00,40.1,31.1,29.66,SW,234,11.0,15.0,70,0.00,,,0.30,Wunderground v.1.15,2013-04-19 23:46:00,
2013-04-19 19:52:00,40.0,31.0,29.66,SSW,205,12.0,15.0,70,0.00,,,0.30,Wunderground v.1.15,2013-04-19 23:52:00,
2013-04-19 19:58:00,40.0,31.0,29.67,WSW,252,13.0,18.0,70,0.00,,,0.30,Wunderground v.1.15,2013-04-19 23:58:00,
2013-04-19 20:04:00,40.0,31.0,29.66,SSW,210,12.0,13.0,70,0.00,,,0.30,Wunderground v.1.15,2013-04-20 00:04:00,
2013-04-19 20:09:00,39.9,30.9,29.67,West,265,12.0,21.0,70,0.00,,,0.30,Wunderground v.1.15,2013-04-20 00:09:00,
2013-04-19 20:14:00,39.8,30.8,29.67,SW,227,15.0,20.0,70,0.00,,,0.30,Wunderground v.1.15,2013-04-20 00:14:00,
2013-04-19 20:19:00,39.8,30.8,29.67,NW,322,15.0,24.0,70,0.00,,,0.30,Wunderground v.1.15,2013-04-20 00:19:00,
2013-04-19 20:24:00,39.8,30.8,29.68,WSW,252,13.0,17.0,70,0.00,,,0.30,Wunderground v.1.15,2013-04-20 00:24:00,
2013-04-19 20:30:00,39.8,30.8,29.68,West,261,11.0,11.0,70,0.00,,,0.30,Wunderground v.1.15,2013-04-20 00:30:00,
2013-04-19 20:35:00,39.7,30.7,29.68,SW,215,11.0,14.0,70,0.00,,,0.30,Wunderground v.1.15,2013-04-20 00:35:00,
2013-04-19 20:40:00,39.7,30.7,29.68,SW,219,11.0,11.0,70,0.00,,,0.30,Wunderground v.1.15,2013-04-20 00:40:00,
2013-04-19 20:45:00,39.7,30.4,29.68,WSW,257,12.0,12.0,69,0.00,,,0.30,Wunderground v.1.15,2013-04-20 00:45:00,
2013-04-19 20:51:00,39.8,30.1,29.68,WSW,242,13.0,14.0,68,0.00,,,0.30,Wunderground v.1.15,2013-04-20 00:51:00,
2013-04-19 20:56:00,39.8,30.1,29.69,WSW,246,13.0,18.0,68,0.00,,,0.30,Wunderground v.1.15,2013-04-20 00:56:00,
2013-04-19 21:01:00,39.7,30.4,29.69,SSW,213,13.0,20.0,69,0.00,,,0.30,Wunderground v.1.15,2013-04-20 01:01:00,
2013-04-19 21:07:00,39.7,30.0,29.69,SW,227,13.0,20.0,68,0.00,,,0.30,Wunderground v.1.15,2013-04-20 01:07:00,
2013-04-19 21:13:00,39.6,30.3,29.69,SSW,209,13.0,21.0,69,0.00,,,0.30,Wunderground v.1.15,2013-04-20 01:13:00,
2013-04-19 21:18:00,39.4,30.4,29.69,SSW,211,13.0,21.0,70,0.00,,,0.30,Wunderground v.1.15,2013-04-20 01:18:00,
2013-04-19 21:23:00,39.3,30.7,29.70,SW,228,14.0,19.0,71,0.00,,,0.30,Wunderground v.1.15,2013-04-20 01:23:00,
2013-04-19 21:28:00,39.1,30.5,29.70,WSW,238,15.0,21.0,71,0.00,,,0.30,Wunderground v.1.15,2013-04-20 01:28:00,
2013-04-19 21:33:00,39.0,30.7,29.70,SW,219,13.0,16.0,72,0.00,,,0.30,Wunderground v.1.15,2013-04-20 01:33:00,
2013-04-19 21:39:00,38.9,30.6,29.70,SW,222,13.0,21.0,72,0.00,,,0.30,Wunderground v.1.15,2013-04-20 01:39:00,
2013-04-19 21:44:00,38.9,30.6,29.70,WSW,241,12.0,14.0,72,0.00,,,0.30,Wunderground v.1.15,2013-04-20 01:44:00,
2013-04-19 21:49:00,38.9,30.6,29.70,ESE,118,11.0,15.0,72,0.00,,,0.30,Wunderground v.1.15,2013-04-20 01:49:00,
2013-04-19 21:55:00,38.9,30.6,29.71,WSW,237,11.0,17.0,72,0.00,,,0.30,Wunderground v.1.15,2013-04-20 01:55:00,
2013-04-19 22:00:00,38.9,30.6,29.71,West,273,12.0,12.0,72,0.00,,,0.30,Wunderground v.1.15,2013-04-20 02:00:00,
2013-04-19 22:06:00,38.9,30.6,29.71,WSW,238,12.0,14.0,72,0.00,,,0.30,Wunderground v.1.15,2013-04-20 02:06:00,
2013-04-19 22:12:00,38.8,30.5,29.71,SW,221,11.0,11.0,72,0.00,,,0.30,Wunderground v.1.15,2013-04-20 02:12:00,
2013-04-19 22:17:00,38.8,30.5,29.71,SSW,204,11.0,13.0,72,0.00,,,0.30,Wunderground v.1.15,2013-04-20 02:17:00,
2013-04-19 22:22:00,38.8,30.5,29.71,SW,222,11.0,11.0,72,0.00,,,0.30,Wunderground v.1.15,2013-04-20 02:22:00,
2013-04-19 22:27:00,38.7,30.4,29.71,SW,216,10.0,17.0,72,0.00,,,0.30,Wunderground v.1.15,2013-04-20 02:27:00,
2013-04-19 22:33:00,38.7,30.8,29.71,WSW,246,11.0,13.0,73,0.00,,,0.30,Wunderground v.1.15,2013-04-20 02:33:00,
2013-04-19 22:38:00,38.6,30.7,29.71,SSW,207,10.0,14.0,73,0.00,,,0.30,Wunderground v.1.15,2013-04-20 02:38:00,
2013-04-19 22:43:00,38.6,31.0,29.71,SSW,208,10.0,12.0,74,0.00,,,0.30,Wunderground v.1.15,2013-04-20 02:43:00,
2013-04-19 22:48:00,38.4,31.2,29.71,SW,225,11.0,18.0,75,0.00,,,0.30,Wunderground v.1.15,2013-04-20 02:48:00,
2013-04-19 22:54:00,38.2,31.3,29.72,SW,223,10.0,11.0,76,0.00,,,0.30,Wunderground v.1.15,2013-04-20 02:54:00,
2013-04-19 22:59:00,38.1,31.5,29.72,SW,228,10.0,12.0,77,0.00,,,0.30,Wunderground v.1.15,2013-04-20 02:59:00,
2013-04-19 23:04:00,38.0,31.4,29.72,West,264,10.0,13.0,77,0.00,,,0.30,Wunderground v.1.15,2013-04-20 03:04:00,
2013-04-19 23:09:00,37.9,31.3,29.72,WSW,241,10.0,13.0,77,0.00,,,0.30,Wunderground v.1.15,2013-04-20 03:09:00,
2013-04-19 23:14:00,37.9,31.3,29.72,WSW,241,11.0,14.0,77,0.00,,,0.30,Wunderground v.1.15,2013-04-20 03:14:00,
2013-04-19 23:20:00,37.9,31.7,29.72,SW,235,11.0,11.0,78,0.00,,,0.30,Wunderground v.1.15,2013-04-20 03:20:00,
2013-04-19 23:25:00,37.8,31.6,29.72,SSW,198,10.0,13.0,78,0.00,,,0.30,Wunderground v.1.15,2013-04-20 03:25:00,
2013-04-19 23:30:00,37.7,31.8,29.71,SSW,212,10.0,12.0,79,0.00,,,0.30,Wunderground v.1.15,2013-04-20 03:30:00,
2013-04-19 23:36:00,37.7,31.8,29.72,SW,226,12.0,23.0,79,0.00,,,0.30,Wunderground v.1.15,2013-04-20 03:36:00,
2013-04-19 23:41:00,37.6,32.0,29.72,West,270,12.0,14.0,80,0.00,,,0.30,Wunderground v.1.15,2013-04-20 03:41:00,
2013-04-19 23:46:00,37.0,32.3,29.72,WSW,250,9.0,14.0,83,0.00,,,0.30,Wunderground v.1.15,2013-04-20 03:46:00,
2013-04-19 23:52:00,36.7,32.3,29.72,West,273,8.0,19.0,84,0.00,,,0.30,Wunderground v.1.15,2013-04-20 03:52:00,
2013-04-19 23:57:00,36.7,32.3,29.72,NNW,330,8.0,19.0,84,0.00,,,0.00,Wunderground v.1.15,2013-04-20 03:57:00,